This demonstration page uses our WeatherBlox Daily Observations layout. Learn more.

Hourly Observations for July 22, 2019

Temp ( °F °C ) Dew Point ( °F °C ) Humidity (%) Winds ( mph kmh ) Pressure ( in mb ) Visibility ( mi km ) Precip ( " mm )
12:15 am 00:15 Clear 73 23 72 22 94 94 Calm 29.94 1014 10 16.09344 0 0
12:35 am 00:35 Clear 73 23 72 22 94 94 Calm 29.91 1013 10 16.09344 0 0
12:55 am 00:55 Clear 72 22 72 22 100 100 S 5 7 29.91 1013 10 16.09344 0 0
1:15 am 01:15 Clear 70 21 70 21 100 100 SW 3 6 29.91 1013 10 16.09344 0 0
1:35 am 01:35 Clear 72 22 72 22 100 100 S 3 6 29.91 1013 10 16.09344 0 0
1:55 am 01:55 Clear 72 22 70 21 94 94 WSW 3 6 29.91 1013 10 16.09344 0 0
2:15 am 02:15 Clear 70 21 70 21 100 100 Calm 29.91 1013 10 16.09344 0 0
2:35 am 02:35 Clear 70 21 70 21 100 100 Calm 29.91 1013 10 16.09344 0 0
2:55 am 02:55 Clear 70 21 70 21 100 100 Calm 29.91 1013 10 16.09344 0 0
3:15 am 03:15 Clear 72 22 70 21 94 94 Calm 29.91 1013 10 16.09344 0 0
3:35 am 03:35 Clear 70 21 70 21 100 100 Calm 29.91 1013 10 16.09344 0 0
3:55 am 03:55 Clear 70 21 70 21 100 100 Calm 29.91 1013 10 16.09344 0 0
4:15 am 04:15 Clear 70 21 70 21 100 100 Calm 29.91 1013 10 16.09344 0 0
4:35 am 04:35 Clear 68 20 68 20 100 100 W 5 7 29.88 1012 10 16.09344 0 0
4:55 am 04:55 Clear 70 21 70 21 100 100 Calm 29.91 1013 10 16.09344 0 0
5:15 am 05:15 Clear 70 21 70 21 100 100 Calm 29.88 1012 10 16.09344 0 0
5:35 am 05:35 Partly Cloudy 70 21 70 21 100 100 Calm 29.88 1012 10 16.09344 0 0
5:55 am 05:55 Clear 70 21 70 21 100 100 Calm 29.88 1012 10 16.09344 0 0
6:15 am 06:15 Sunny 70 21 70 21 100 100 Calm 29.88 1012 10 16.09344 0 0
6:35 am 06:35 Sunny 70 21 70 21 100 100 Calm 29.88 1012 10 16.09344 0 0
6:55 am 06:55 Sunny 72 22 70 21 94 94 Calm 29.88 1012 10 16.09344 0 0
7:15 am 07:15 Sunny 72 22 70 21 94 94 Calm 29.88 1012 10 16.09344 0 0
7:35 am 07:35 Sunny 73 23 70 21 89 89 Calm 29.88 1012 10 16.09344 0 0
7:55 am 07:55 Sunny 75 24 70 21 83 83 Calm 29.88 1012 10 16.09344 0 0
8:15 am 08:15 Sunny 77 25 70 21 79 79 Calm 29.88 1012 10 16.09344 0 0
8:35 am 08:35 Sunny 77 25 72 22 83 83 Calm 29.88 1012 10 16.09344 0 0
8:55 am 08:55 Sunny 79 26 72 22 79 79 Calm 29.88 1012 10 16.09344 0 0
9:15 am 09:15 Sunny 79 26 72 22 79 79 Calm 29.88 1012 10 16.09344 0 0
9:35 am 09:35 Sunny 81 27 70 21 70 70 Calm 29.88 1012 10 16.09344 0 0
9:55 am 09:55 Sunny 82 28 73 23 74 74 Calm 29.88 1012 10 16.09344 0 0
10:15 am 10:15 Sunny 84 29 73 23 70 70 SW 3 6 29.88 1012 10 16.09344 0 0
10:35 am 10:35 Sunny 84 29 72 22 66 66 WSW 3 6 29.83 1010 10 16.09344 0 0
10:55 am 10:55 Sunny 86 30 72 22 62 62 Calm 29.85 1011 10 16.09344 0 0
11:15 am 11:15 Partly Cloudy 88 31 72 22 59 59 Calm 29.85 1011 10 16.09344 0 0
11:35 am 11:35 Partly Cloudy 88 31 73 23 62 62 SW 5 7 29.83 1010 10 16.09344 0 0
11:55 am 11:55 Partly Cloudy 88 31 73 23 62 62 Calm 29.83 1010 10 16.09344 0 0
12:15 pm 12:15 Sunny 90 32 75 24 63 63 W 8 13 29.83 1010 10 16.09344 0 0
12:35 pm 12:35 Partly Cloudy 90 32 77 25 67 67 W 9 15 29.8 1009 10 16.09344 0 0
12:55 pm 12:55 Sunny 90 32 72 22 55 55 W 13 20 29.8 1009 10 16.09344 0 0
1:15 pm 13:15 Sunny 91 33 72 22 52 52 SW 12 19 29.8 1009 10 16.09344 0 0
1:35 pm 13:35 Partly Cloudy 91 33 73 23 56 56 W 8 13 29.77 1008 10 16.09344 0 0
2:15 pm 14:15 Partly Cloudy 91 33 73 23 56 56 WSW 8 13 29.77 1008 10 16.09344 0 0
2:35 pm 14:35 Mostly Cloudy 91 33 73 23 56 56 WSW 10 17 29.77 1008 10 16.09344 0 0
2:55 pm 14:55 Cloudy with Nearby Thunderstorms 86 30 75 24 70 70 NNW 26 43 29.77 1008 10 16.09344 0 0
3:15 pm 15:15 Cloudy with Nearby Thunderstorms 77 25 73 23 89 89 NW 8 13 29.8 1009 10 16.09344 0.02 0.508
3:35 pm 15:35 Cloudy 77 25 72 22 83 83 WSW 3 6 29.83 1010 10 16.09344 0.02 0.508
3:55 pm 15:55 Mostly Cloudy with Thunderstorms 77 25 72 22 83 83 NW 8 13 29.83 1010 10 16.09344 0.02 0.508
4:15 pm 16:15 Partly Cloudy 79 26 72 22 79 79 NW 7 11 29.8 1009 10 16.09344 0 0
4:35 pm 16:35 Partly Cloudy 79 26 72 22 79 79 WNW 6 9 29.8 1009 10 16.09344 0 0
4:55 pm 16:55 Mostly Cloudy 79 26 72 22 79 79 WNW 5 7 29.8 1009 10 16.09344 0 0
5:15 pm 17:15 Mostly Cloudy 79 26 72 22 79 79 Calm 29.8 1009 10 16.09344 0 0
5:35 pm 17:35 Cloudy 79 26 73 23 84 84 W 5 7 29.8 1009 10 16.09344 0 0
5:55 pm 17:55 Mostly Cloudy 79 26 73 23 84 84 Calm 29.8 1009 10 16.09344 0 0
6:15 pm 18:15 Sunny 81 27 73 23 79 79 Calm 29.77 1008 10 16.09344 0 0
6:35 pm 18:35 Sunny 81 27 73 23 79 79 Calm 29.8 1009 10 16.09344 0 0
6:55 pm 18:55 Sunny 81 27 73 23 79 79 Calm 29.8 1009 10 16.09344 0 0
7:15 pm 19:15 Sunny 81 27 73 23 79 79 Calm 29.8 1009 10 16.09344 0 0
7:35 pm 19:35 Partly Cloudy 81 27 75 24 84 84 Calm 29.8 1009 10 16.09344 0 0
7:55 pm 19:55 Partly Cloudy 81 27 75 24 84 84 Calm 29.8 1009 10 16.09344 0 0
8:15 pm 20:15 Sunny 81 27 75 24 84 84 SSW 3 6 29.8 1009 10 16.09344 0 0
8:35 pm 20:35 Partly Cloudy 81 27 77 25 89 89 SSW 6 9 29.77 1008 10 16.09344 0 0
8:55 pm 20:55 Mostly Cloudy 81 27 75 24 84 84 SW 7 11 29.77 1008 10 16.09344 0 0
9:15 pm 21:15 Mostly Cloudy 81 27 73 23 79 79 SW 6 9 29.77 1008 10 16.09344 0 0
9:35 pm 21:35 Partly Cloudy 81 27 73 23 79 79 SW 6 9 29.8 1009 10 16.09344 0 0
9:55 pm 21:55 Partly Cloudy 81 27 73 23 79 79 NW 14 22 29.8 1009 10 16.09344 0 0
10:15 pm 22:15 Mostly Cloudy 73 23 72 22 94 94 NNW 18 30 29.8 1009 10 16.09344 0 0
10:35 pm 22:35 Mostly Cloudy 73 23 72 22 94 94 N 5 7 29.83 1010 10 16.09344 0 0
10:55 pm 22:55 Cloudy 73 23 72 22 94 94 N 3 6 29.83 1010 10 16.09344 0 0
11:15 pm 23:15 Cloudy 73 23 72 22 94 94 NNE 3 6 29.83 1010 10 16.09344 0 0
11:35 pm 23:35 Cloudy 73 23 72 22 94 94 Calm 29.83 1010 10 16.09344 0 0
11:55 pm 23:55 Cloudy 73 23 72 22 94 94 Calm 29.8 1009 10 16.09344 0 0

Powered by AerisWeather